Location: D?uga
(50.2667°N, 19.7833°E)
Time: 15:28:54
(UTC+00:00)

AQUA - Pass Details

Date: 23 May 2024
Orbit: 694 x 697 km, 98.3° (Epoch: 12 June)

Event Time Altitude Azimuth Distance (km) Brightness Sun altitude
Rises 01:56:42 0° 10° (N) 3,087 8.1 -6.6°
Reaches altitude 10° 01:59:02 10° 4° (N) 2,165 7.1 -6.3°
Maximum altitude 02:03:33 47° 292° (WNW) 927 4.3 -5.8°
Drops below altitude 10° 02:08:02 10° 220° (SW) 2,148 5.7 -5.3°
Enters shadow 02:08:59 - 217° (SW) 2,515 6.0 -5.2°
